Time,TemperatureF,DewpointF,PressureIn,WindDirection,WindDirectionDegrees,WindSpeedMPH,WindSpeedGustMPH,Humidity,HourlyPrecipIn,Conditions,Clouds,dailyrainin,SoftwareType,DateUTC
2013-07-06 00:09:00,70.0,68.0,30.04,South,171,0.0,-999.0,93,-99.99,,,0.00,weatherlink.com 1.10,2013-07-06 04:09:00,
2013-07-06 00:24:00,70.1,68.0,30.04,South,171,0.0,-999.0,93,-99.99,,,0.00,weatherlink.com 1.10,2013-07-06 04:24:00,
2013-07-06 00:39:00,70.0,68.0,30.04,South,171,0.0,-999.0,93,-99.99,,,0.00,weatherlink.com 1.10,2013-07-06 04:39:00,
2013-07-06 00:54:00,69.8,68.0,30.04,South,171,0.0,-999.0,93,-99.99,,,0.00,weatherlink.com 1.10,2013-07-06 04:54:00,
2013-07-06 01:09:00,70.0,68.0,30.04,South,171,0.0,-999.0,94,-99.99,,,0.00,weatherlink.com 1.10,2013-07-06 05:09:00,
2013-07-06 01:24:00,70.0,68.0,30.04,South,171,0.0,-999.0,94,-99.99,,,0.00,weatherlink.com 1.10,2013-07-06 05:24:00,
2013-07-06 01:39:00,69.9,68.0,30.03,South,171,0.0,-999.0,94,-99.99,,,0.00,weatherlink.com 1.10,2013-07-06 05:39:00,
2013-07-06 01:55:00,69.9,68.0,30.03,South,171,0.0,-999.0,94,-99.99,,,0.00,weatherlink.com 1.10,2013-07-06 05:55:00,
2013-07-06 02:10:00,70.1,68.0,30.02,South,171,0.0,-999.0,94,-99.99,,,0.00,weatherlink.com 1.10,2013-07-06 06:10:00,
2013-07-06 02:25:00,70.1,68.0,30.02,South,171,1.0,-999.0,94,-99.99,,,0.00,weatherlink.com 1.10,2013-07-06 06:25:00,
2013-07-06 02:40:00,70.2,69.0,30.02,SSE,163,1.0,-999.0,95,-99.99,,,0.00,weatherlink.com 1.10,2013-07-06 06:40:00,
2013-07-06 02:55:00,70.1,69.0,30.02,SSE,163,1.0,-999.0,95,-99.99,,,0.00,weatherlink.com 1.10,2013-07-06 06:55:00,
2013-07-06 03:10:00,70.1,69.0,30.02,SSE,163,0.0,-999.0,95,-99.99,,,0.00,weatherlink.com 1.10,2013-07-06 07:10:00,
2013-07-06 03:25:00,70.0,69.0,30.02,SSE,163,0.0,-999.0,95,-99.99,,,0.00,weatherlink.com 1.10,2013-07-06 07:25:00,
2013-07-06 03:40:00,70.0,69.0,30.02,SSE,163,0.0,-999.0,95,-99.99,,,0.00,weatherlink.com 1.10,2013-07-06 07:40:00,
2013-07-06 03:55:00,69.9,69.0,30.01,SSE,163,0.0,-999.0,95,-99.99,,,0.00,weatherlink.com 1.10,2013-07-06 07:55:00,
2013-07-06 04:10:00,69.8,69.0,30.01,SSE,163,0.0,-999.0,96,-99.99,,,0.00,weatherlink.com 1.10,2013-07-06 08:10:00,
2013-07-06 04:25:00,69.7,69.0,30.01,SSE,163,0.0,-999.0,96,-99.99,,,0.00,weatherlink.com 1.10,2013-07-06 08:25:00,
2013-07-06 04:40:00,69.7,69.0,30.01,SSE,163,2.0,-999.0,96,-99.99,,,0.00,weatherlink.com 1.10,2013-07-06 08:40:00,
2013-07-06 04:55:00,69.6,69.0,30.01,SSE,163,0.0,-999.0,96,-99.99,,,0.00,weatherlink.com 1.10,2013-07-06 08:55:00,
2013-07-06 05:10:00,69.5,69.0,30.01,SSE,163,0.0,-999.0,97,-99.99,,,0.00,weatherlink.com 1.10,2013-07-06 09:10:00,
2013-07-06 05:25:00,69.5,69.0,30.01,SSE,163,0.0,-999.0,97,-99.99,,,0.00,weatherlink.com 1.10,2013-07-06 09:25:00,
2013-07-06 05:40:00,69.5,69.0,30.02,SSE,163,0.0,-999.0,97,-99.99,,,0.00,weatherlink.com 1.10,2013-07-06 09:40:00,
2013-07-06 05:55:00,69.2,68.0,30.02,SSE,163,0.0,-999.0,97,-99.99,,,0.00,weatherlink.com 1.10,2013-07-06 09:55:00,
2013-07-06 06:10:00,69.2,68.0,30.02,SSE,163,0.0,-999.0,97,-99.99,,,0.00,weatherlink.com 1.10,2013-07-06 10:10:00,
2013-07-06 06:25:00,69.0,68.0,30.02,SSE,163,1.0,-999.0,97,-99.99,,,0.00,weatherlink.com 1.10,2013-07-06 10:25:00,
2013-07-06 06:40:00,69.4,69.0,30.02,SSE,163,1.0,-999.0,98,-99.99,,,0.00,weatherlink.com 1.10,2013-07-06 10:40:00,
2013-07-06 06:55:00,69.6,69.0,30.03,SSE,163,0.0,-999.0,98,-99.99,,,0.00,weatherlink.com 1.10,2013-07-06 10:55:00,
2013-07-06 07:10:00,69.9,69.0,30.03,SSE,163,0.0,-999.0,98,-99.99,,,0.00,weatherlink.com 1.10,2013-07-06 11:10:00,
2013-07-06 07:25:00,70.1,70.0,30.03,SSE,163,0.0,-999.0,98,-99.99,,,0.00,weatherlink.com 1.10,2013-07-06 11:25:00,
2013-07-06 07:40:00,70.2,70.0,30.02,SSE,163,0.0,-999.0,98,-99.99,,,0.00,weatherlink.com 1.10,2013-07-06 11:40:00,
2013-07-06 07:55:00,70.5,70.0,30.03,SSE,163,0.0,-999.0,98,-99.99,,,0.00,weatherlink.com 1.10,2013-07-06 11:55:00,
2013-07-06 08:10:00,70.6,70.0,30.03,SSE,163,0.0,-999.0,98,-99.99,,,0.00,weatherlink.com 1.10,2013-07-06 12:10:00,
2013-07-06 08:25:00,70.8,70.0,30.03,SSE,163,0.0,-999.0,98,-99.99,,,0.00,weatherlink.com 1.10,2013-07-06 12:25:00,
2013-07-06 08:40:00,70.8,70.0,30.03,SSE,163,0.0,-999.0,98,-99.99,,,0.00,weatherlink.com 1.10,2013-07-06 12:40:00,
2013-07-06 08:55:00,71.0,70.0,30.03,SSE,163,0.0,-999.0,97,-99.99,,,0.03,weatherlink.com 1.10,2013-07-06 12:55:00,
2013-07-06 09:10:00,70.7,70.0,30.03,SSE,163,0.0,-999.0,98,-99.99,,,0.21,weatherlink.com 1.10,2013-07-06 13:10:00,
2013-07-06 09:25:00,70.6,70.0,30.03,SSE,163,0.0,-999.0,98,-99.99,,,0.25,weatherlink.com 1.10,2013-07-06 13:25:00,
2013-07-06 09:40:00,70.4,70.0,30.03,SSW,198,4.0,-999.0,98,-99.99,,,0.27,weatherlink.com 1.10,2013-07-06 13:40:00,
2013-07-06 09:55:00,70.2,70.0,30.03,SSW,207,1.0,-999.0,98,-99.99,,,0.33,weatherlink.com 1.10,2013-07-06 13:55:00,
2013-07-06 10:10:00,70.4,70.0,30.03,SSW,207,0.0,-999.0,98,-99.99,,,0.33,weatherlink.com 1.10,2013-07-06 14:10:00,
2013-07-06 10:25:00,70.8,71.0,30.03,SSW,202,4.0,-999.0,99,-99.99,,,0.35,weatherlink.com 1.10,2013-07-06 14:25:00,
2013-07-06 10:40:00,71.0,71.0,30.03,SSW,194,2.0,-999.0,99,-99.99,,,0.35,weatherlink.com 1.10,2013-07-06 14:40:00,
2013-07-06 10:55:00,71.0,70.0,30.03,SSW,194,1.0,-999.0,98,-99.99,,,0.36,weatherlink.com 1.10,2013-07-06 14:55:00,
2013-07-06 11:10:00,69.9,69.0,30.03,South,185,3.0,-999.0,98,-99.99,,,0.39,weatherlink.com 1.10,2013-07-06 15:10:00,
2013-07-06 11:25:00,70.2,70.0,30.02,SSW,192,2.0,-999.0,98,-99.99,,,0.42,weatherlink.com 1.10,2013-07-06 15:25:00,
2013-07-06 11:40:00,70.1,70.0,30.03,SSW,194,3.0,-999.0,98,-99.99,,,0.42,weatherlink.com 1.10,2013-07-06 15:40:00,
2013-07-06 11:55:00,70.1,70.0,30.03,SSW,201,3.0,-999.0,98,-99.99,,,0.42,weatherlink.com 1.10,2013-07-06 15:55:00,
2013-07-06 12:25:00,70.5,70.0,30.03,SSW,197,5.0,-999.0,97,-99.99,,,0.42,weatherlink.com 1.10,2013-07-06 16:25:00,
2013-07-06 12:40:00,70.3,69.0,30.03,South,188,2.0,-999.0,96,-99.99,,,0.42,weatherlink.com 1.10,2013-07-06 16:40:00,
2013-07-06 12:55:00,70.3,69.0,30.03,South,182,3.0,-999.0,96,-99.99,,,0.43,weatherlink.com 1.10,2013-07-06 16:55:00,
2013-07-06 13:10:00,70.0,69.0,30.03,South,177,2.0,-999.0,96,-99.99,,,0.43,weatherlink.com 1.10,2013-07-06 17:10:00,
2013-07-06 13:25:00,69.3,68.0,30.03,South,184,2.0,-999.0,96,-99.99,,,0.43,weatherlink.com 1.10,2013-07-06 17:25:00,
2013-07-06 14:10:00,70.1,69.0,30.02,SSW,205,3.0,-999.0,97,-99.99,,,0.43,weatherlink.com 1.10,2013-07-06 18:10:00,
2013-07-06 14:25:00,70.1,69.0,30.02,South,189,3.0,-999.0,97,-99.99,,,0.43,weatherlink.com 1.10,2013-07-06 18:25:00,
2013-07-06 14:40:00,70.1,69.0,30.02,SSW,211,4.0,-999.0,97,-99.99,,,0.43,weatherlink.com 1.10,2013-07-06 18:40:00,
2013-07-06 15:40:00,69.5,69.0,30.02,SW,216,1.0,-999.0,97,-99.99,,,0.44,weatherlink.com 1.10,2013-07-06 19:40:00,
2013-07-06 16:10:00,69.9,69.0,30.01,SSW,205,4.0,-999.0,97,-99.99,,,0.45,weatherlink.com 1.10,2013-07-06 20:10:00,
2013-07-06 16:25:00,70.0,69.0,30.01,SW,219,2.0,-999.0,96,-99.99,,,0.45,weatherlink.com 1.10,2013-07-06 20:25:00,
2013-07-06 16:55:00,70.1,69.0,30.00,SW,218,6.0,-999.0,95,-99.99,,,0.45,weatherlink.com 1.10,2013-07-06 20:55:00,
2013-07-06 17:10:00,70.5,69.0,29.99,WSW,250,2.0,-999.0,96,-99.99,,,0.45,weatherlink.com 1.10,2013-07-06 21:10:00,
2013-07-06 17:25:00,70.5,69.0,30.00,SW,221,6.0,-999.0,95,-99.99,,,0.45,weatherlink.com 1.10,2013-07-06 21:25:00,
2013-07-06 17:40:00,70.8,69.0,29.99,SW,225,2.0,-999.0,95,-99.99,,,0.45,weatherlink.com 1.10,2013-07-06 21:40:00,
2013-07-06 18:10:00,71.2,69.0,29.98,WSW,244,2.0,-999.0,94,-99.99,,,0.45,weatherlink.com 1.10,2013-07-06 22:10:00,
2013-07-06 18:25:00,71.7,70.0,29.98,WSW,244,0.0,-999.0,93,-99.99,,,0.45,weatherlink.com 1.10,2013-07-06 22:25:00,
2013-07-06 18:40:00,72.2,70.0,29.97,WSW,244,0.0,-999.0,91,-99.99,,,0.45,weatherlink.com 1.10,2013-07-06 22:40:00,
2013-07-06 18:56:00,72.4,69.0,29.97,WSW,243,1.0,-999.0,89,-99.99,,,0.45,weatherlink.com 1.10,2013-07-06 22:56:00,
2013-07-06 19:26:00,72.0,69.0,29.98,SW,232,0.0,-999.0,91,-99.99,,,0.45,weatherlink.com 1.10,2013-07-06 23:26:00,
2013-07-06 19:41:00,72.3,69.0,29.98,SSW,202,6.0,-999.0,90,-99.99,,,0.45,weatherlink.com 1.10,2013-07-06 23:41:00,
2013-07-06 19:56:00,72.1,69.0,29.97,SSW,194,2.0,-999.0,90,-99.99,,,0.45,weatherlink.com 1.10,2013-07-06 23:56:00,
2013-07-06 20:11:00,72.0,69.0,29.97,South,189,0.0,-999.0,89,-99.99,,,0.45,weatherlink.com 1.10,2013-07-07 00:11:00,
2013-07-06 20:41:00,71.3,69.0,29.98,South,191,2.0,-999.0,92,-99.99,,,0.45,weatherlink.com 1.10,2013-07-07 00:41:00,
2013-07-06 21:26:00,70.3,69.0,29.98,South,191,0.0,-999.0,94,-99.99,,,0.45,weatherlink.com 1.10,2013-07-07 01:26:00,
2013-07-06 21:41:00,69.9,68.0,29.98,South,190,0.0,-999.0,94,-99.99,,,0.45,weatherlink.com 1.10,2013-07-07 01:41:00,
2013-07-06 21:56:00,69.5,68.0,30.00,South,190,0.0,-999.0,95,-99.99,,,0.45,weatherlink.com 1.10,2013-07-07 01:56:00,
2013-07-06 22:11:00,69.4,68.0,30.01,SSE,147,0.0,-999.0,96,-99.99,,,0.45,weatherlink.com 1.10,2013-07-07 02:11:00,
2013-07-06 22:26:00,69.0,68.0,30.01,SE,127,1.0,-999.0,96,-99.99,,,0.45,weatherlink.com 1.10,2013-07-07 02:26:00,
2013-07-06 22:41:00,68.6,68.0,30.01,SSE,157,0.0,-999.0,96,-99.99,,,0.45,weatherlink.com 1.10,2013-07-07 02:41:00,
2013-07-06 22:56:00,68.3,67.0,30.02,SSE,157,0.0,-999.0,96,-99.99,,,0.45,weatherlink.com 1.10,2013-07-07 02:56:00,
2013-07-06 23:26:00,67.3,67.0,30.02,SSE,157,0.0,-999.0,97,-99.99,,,0.45,weatherlink.com 1.10,2013-07-07 03:26:00,